User: anonymous   Login
Location: Caltech
(34.1382°N, 118.1253°W)
Time: 17:39:34
(UTC-08:00)
Language:

OAO 2 Rocket - Orbit

View from above orbital plane
View from above orbital plane
View from above satellite
View from above satellite

Ground track
Ground track

The orbit data is extracted from the following two-line orbital elements,

1 03598U 68110B   15065.46549610  .00000625  00000-0  14874-3 0  9993
2 03598 034.9952 004.1636 0050135 305.7567 053.8471 14.53940684445045
Epoch (UTC): 06 March 2015 11:10:18
Eccentricity: 0.0050135
inclination: 34.9952°
perigee height: 677 km
apogee height: 748 km
right ascension of ascending node: 4.1636°
argument of perigee: 305.7567°
revolutions per day: 14.53940684
mean anomaly at epoch: 53.8471°
orbit number at epoch: 44504

The dashed part of the orbit path shows where the satellite is in the earth's shadow,  

DLR